Childress Municipal Airport
KCDS : now visible

Airfield :











YOU CAN JOIN US ON...

 
LOGIN :

Register | Disclaimer

   EN    FR    IT 

 









Legend :    VFR   Marginal VFR   IFR   Intensive IFR   Very Intensive IFR
Visi :
Ceiling :
>= 8 km
>= 3000ft
5 to 8 km
1000 to 3000 ft
1500m to 5 km
500 to 1000 ft
800 to 1500m
200 to 500 ft
< 800m
< 200 ft
Symbols :   Thunderstorms  Fog  Heavy snow  Heavy precipitations  Wind > 20 kt






- Airport Elevation : 1954 ft


KCDS - Childress Municipal

CURRENT METAR :
  • 250353Z AUTO 12011G18KT 10SM CLR 09/04 A2988 RMK AO2 SLP116 T00940039

EXPIRED METARs :
  • 250253Z AUTO 12012KT 10SM CLR 10/04 A2989 RMK AO2 SLP118 T01000039 51008
  • 250153Z AUTO 12011KT 10SM CLR 12/03 A2988 RMK AO2 SLP117 T01170033

TAF KCDS
Valid from the 25 at 00:00 until the 26 at 00:00 UTC


242332Z 2500/2524 15011KT P6SM FEW250
FM251100 11011KT P6SM SCT010
FM251900 01015KT P6SM BKN030
KZFW FIR / North America



MET'MAP, your aeronautical weather chart ! - Copyright ORBIFLY December 2007 - Disclaimer

ORBIFLY MET'MAP TEAM :

Programming & Development : Alexandra Zaïnal
Concept & original design : Baudouin d'Aumeries
Assistance for programming : Marc-Olivier Méhu
Technical & hardware support : Manuel Goepfert

Contact : metmap@orbifly.com




SOURCES & CREDITS :

   NOAA       Earth
Advisory